User: anonymous   Login
Location: Unspecified
(0.0000°N, 0.0000°E)
Time: 23:19:33
(UTC+00:00)
Language:

Interbol-2 - Orbit

View from above orbital plane
View from above orbital plane
View from above satellite
View from above satellite

Ground track
Ground track

The orbit data is extracted from the following two-line orbital elements,

1 24292U 96050B   17141.51104005 +.00000043 +00000-0 +00000-0 0  9996
2 24292 063.5504 215.7433 5193190 237.9959 258.2228 04.14706444313797
Epoch (UTC): 21 May 2017 12:15:53
Eccentricity: 0.5193190
inclination: 63.5504°
perigee height: 1488 km
apogee height: 18485 km
right ascension of ascending node: 215.7433°
argument of perigee: 237.9959°
revolutions per day: 4.14706444
mean anomaly at epoch: 258.2228°
orbit number at epoch: 31379

The dashed part of the orbit path shows where the satellite is in the earth's shadow,  

DLR